| time (UTC) | temp F | wind direction | speed knots | gust knots | rain 1hr in | rain 24hr in | rain mn in | humidity % | barometer mb |
| 20260502234652 | 47 | 62 | 0.9 | 1.7 | 0.00 | 0.00 | 0.00 | 49 | 1017.0 |
| 20260502234149 | 48 | 253 | 0.0 | 0.0 | 0.00 | 0.00 | 0.00 | 50 | 1017.1 |
| 20260502233644 | 48 | 23 | 0.9 | 0.9 | 0.00 | 0.00 | 0.00 | 48 | 1017.1 |
| 20260502233136 | 48 | 20 | 1.7 | 1.7 | 0.00 | 0.00 | 0.00 | 48 | 1016.9 |
| 20260502232632 | 47 | 359 | 0.9 | 1.7 | 0.00 | 0.00 | 0.00 | 46 | 1017.0 |
| 20260502232130 | 47 | 257 | 0.9 | 0.9 | 0.00 | 0.00 | 0.00 | 48 | 1017.2 |
| 20260502231626 | 47 | 40 | 1.7 | 1.7 | 0.00 | 0.00 | 0.00 | 47 | 1017.2 |
| 20260502231124 | 48 | 45 | 1.7 | 1.7 | 0.00 | 0.00 | 0.00 | 48 | 1017.1 |
| 20260502230622 | 47 | 256 | 0.9 | 0.9 | 0.00 | 0.00 | 0.00 | 48 | 1017.2 |
| 20260502230120 | 48 | 241 | 2.6 | 2.6 | 0.00 | 0.00 | 0.00 | 46 | 1017.1 |
| 20260502225615 | 48 | 338 | 2.6 | 4.3 | 0.00 | 0.00 | 0.00 | 46 | 1017.3 |
| 20260502225113 | 48 | 324 | 0.9 | 0.9 | 0.00 | 0.00 | 0.00 | 45 | 1017.3 |
| 20260502224609 | 48 | 46 | 0.9 | 1.7 | 0.00 | 0.00 | 0.00 | 46 | 1017.4 |
| 20260502224106 | 48 | 299 | 1.7 | 2.6 | 0.00 | 0.00 | 0.00 | 46 | 1017.2 |
| 20260502223604 | 48 | 52 | 2.6 | 2.6 | 0.00 | 0.00 | 0.00 | 46 | 1017.3 |
| 20260502223102 | 49 | 258 | 0.0 | 0.9 | 0.00 | 0.00 | 0.00 | 46 | 1017.5 |
| 20260502222559 | 48 | 262 | 0.9 | 0.9 | 0.00 | 0.00 | 0.00 | 46 | 1017.2 |
| 20260502222055 | 48 | 54 | 1.7 | 1.7 | 0.00 | 0.00 | 0.00 | 46 | 1017.4 |
| 20260502221551 | 47 | 46 | 2.6 | 2.6 | 0.00 | 0.00 | 0.00 | 46 | 1017.4 |
| 20260502221049 | 47 | 252 | 0.9 | 0.9 | 0.00 | 0.00 | 0.00 | 46 | 1017.3 |
| 20260502220544 | 48 | 16 | 1.7 | 1.7 | 0.00 | 0.00 | 0.00 | 45 | 1017.3 |
| 20260502220041 | 48 | 46 | 4.3 | 6.1 | 0.00 | 0.00 | 0.00 | 45 | 1017.2 |
| 20260502215538 | 48 | 272 | 0.9 | 1.7 | 0.00 | 0.00 | 0.00 | 45 | 1017.2 |
| 20260502215035 | 48 | 333 | 1.7 | 2.6 | 0.00 | 0.00 | 0.00 | 45 | 1017.5 |
| 20260502214532 | 50 | 48 | 2.6 | 2.6 | 0.00 | 0.00 | 0.00 | 44 | 1017.3 |
| 20260502214030 | 50 | 357 | 1.7 | 1.7 | 0.00 | 0.00 | 0.00 | 43 | 1017.4 |
| 20260502213526 | 48 | 334 | 2.6 | 2.6 | 0.00 | 0.00 | 0.00 | 45 | 1017.4 |
| 20260502213024 | 48 | 278 | 0.0 | 0.9 | 0.00 | 0.00 | 0.00 | 46 | 1017.7 |
| 20260502212523 | 49 | 257 | 0.9 | 0.9 | 0.00 | 0.00 | 0.00 | 45 | 1017.5 |
| 20260502212020 | 49 | 251 | 0.9 | 0.9 | 0.00 | 0.00 | 0.00 | 46 | 1017.6 |
| 20260502211515 | 48 | 265 | 0.9 | 1.7 | 0.00 | 0.00 | 0.00 | 46 | 1017.5 |
| 20260502211013 | 48 | 41 | 1.7 | 1.7 | 0.00 | 0.00 | 0.00 | 46 | 1017.5 |
| 20260502210510 | 50 | 92 | 2.6 | 4.3 | 0.00 | 0.00 | 0.00 | 45 | 1017.4 |
| 20260502210007 | 48 | 273 | 0.9 | 0.9 | 0.00 | 0.00 | 0.00 | 46 | 1017.6 |
| 20260502205503 | 48 | 26 | 3.5 | 4.3 | 0.00 | 0.00 | 0.00 | 45 | 1017.5 |
| 20260502205000 | 48 | 206 | 0.0 | 0.9 | 0.00 | 0.00 | 0.00 | 48 | 1017.7 |
| 20260502204457 | 49 | 239 | 0.9 | 1.7 | 0.00 | 0.00 | 0.00 | 47 | 1017.7 |
| 20260502203955 | 48 | 53 | 2.6 | 4.3 | 0.00 | 0.00 | 0.00 | 48 | 1017.7 |
| 20260502203452 | 48 | 46 | 2.6 | 4.3 | 0.00 | 0.00 | 0.00 | 44 | 1017.6 |
| 20260502202948 | 47 | 162 | 0.9 | 0.9 | 0.00 | 0.00 | 0.00 | 50 | 1017.7 |
| 20260502202445 | 48 | 337 | 3.5 | 5.2 | 0.00 | 0.00 | 0.00 | 46 | 1017.8 |
| 20260502201943 | 48 | 295 | 0.9 | 1.7 | 0.00 | 0.00 | 0.00 | 46 | 1017.7 |
| 20260502201439 | 47 | 87 | 3.5 | 4.3 | 0.00 | 0.00 | 0.00 | 46 | 1017.9 |
| 20260502200936 | 48 | 30 | 1.7 | 2.6 | 0.00 | 0.00 | 0.00 | 47 | 1017.7 |
| 20260502200431 | 49 | 301 | 2.6 | 4.3 | 0.00 | 0.00 | 0.00 | 45 | 1018.0 |
| 20260502195929 | 47 | 307 | 2.6 | 4.3 | 0.00 | 0.00 | 0.00 | 46 | 1018.1 |
| 20260502195426 | 47 | 57 | 4.3 | 5.2 | 0.00 | 0.00 | 0.00 | 46 | 1018.1 |
| 20260502194923 | 47 | 300 | 0.9 | 0.9 | 0.00 | 0.00 | 0.00 | 47 | 1018.1 |
| 20260502194420 | 47 | 24 | 4.3 | 6.1 | 0.00 | 0.00 | 0.00 | 47 | 1018.2 |
| 20260502193915 | 47 | 265 | 0.0 | 0.0 | 0.00 | 0.00 | 0.00 | 47 | 1018.4 |
| 20260502193413 | 47 | 320 | 0.9 | 1.7 | 0.00 | 0.00 | 0.00 | 45 | 1018.3 |
| 20260502192908 | 48 | 44 | 2.6 | 2.6 | 0.00 | 0.00 | 0.00 | 45 | 1018.3 |
| 20260502192405 | 47 | 21 | 0.9 | 0.9 | 0.00 | 0.00 | 0.00 | 48 | 1018.6 |
| 20260502191902 | 47 | 57 | 1.7 | 1.7 | 0.00 | 0.00 | 0.00 | 47 | 1018.7 |
| 20260502191400 | 48 | 76 | 1.7 | 4.3 | 0.00 | 0.00 | 0.00 | 49 | 1018.6 |
| 20260502190858 | 48 | 279 | 0.9 | 1.7 | 0.00 | 0.00 | 0.00 | 46 | 1018.3 |
| 20260502190354 | 50 | 40 | 1.7 | 1.7 | 0.00 | 0.00 | 0.00 | 44 | 1018.7 |
| 20260502185850 | 50 | 69 | 2.6 | 2.6 | 0.00 | 0.00 | 0.00 | 43 | 1018.6 |
| 20260502185346 | 50 | 280 | 1.7 | 1.7 | 0.00 | 0.00 | 0.00 | 50 | 1018.6 |
| 20260502184843 | 48 | 71 | 1.7 | 2.6 | 0.00 | 0.00 | 0.00 | 48 | 1018.8 |
| 20260502184339 | 48 | 170 | 1.7 | 2.6 | 0.00 | 0.00 | 0.00 | 46 | 1018.5 |
| 20260502183835 | 49 | 342 | 1.7 | 1.7 | 0.00 | 0.00 | 0.00 | 45 | 1018.6 |
| 20260502183332 | 48 | 49 | 3.5 | 4.3 | 0.00 | 0.00 | 0.00 | 45 | 1018.6 |
| 20260502182827 | 48 | 2 | 0.0 | 0.9 | 0.00 | 0.00 | 0.00 | 46 | 1018.6 |
| 20260502182322 | 50 | 35 | 2.6 | 2.6 | 0.00 | 0.00 | 0.00 | 43 | 1018.7 |
| 20260502181819 | 52 | 284 | 1.7 | 2.6 | 0.00 | 0.00 | 0.00 | 43 | 1018.6 |
| 20260502181318 | 50 | 43 | 4.3 | 6.1 | 0.00 | 0.00 | 0.00 | 43 | 1018.6 |
| 20260502180816 | 48 | 50 | 2.6 | 2.6 | 0.00 | 0.00 | 0.00 | 43 | 1018.9 |
| 20260502180313 | 49 | 82 | 0.9 | 0.9 | 0.00 | 0.00 | 0.00 | 45 | 1018.7 |
| 20260502170226 | 48 | 270 | 1.7 | 2.6 | 0.00 | 0.00 | 0.00 | 47 | 1019.0 |
| 20260502164213 | 46 | 265 | 1.7 | 1.7 | 0.00 | 0.00 | 0.00 | 45 | 1019.3 |
| 20260502163708 | 46 | 112 | 3.5 | 4.3 | 0.00 | 0.00 | 0.00 | 47 | 1019.4 |
| 20260502163205 | 45 | 158 | 0.9 | 1.7 | 0.00 | 0.00 | 0.00 | 49 | 1019.4 |
| 20260502162702 | 46 | 23 | 2.6 | 2.6 | 0.00 | 0.00 | 0.00 | 46 | 1019.3 |
| 20260502162159 | 47 | 232 | 0.9 | 0.9 | 0.00 | 0.00 | 0.00 | 47 | 1019.3 |
| 20260502161656 | 47 | 108 | 0.9 | 1.7 | 0.00 | 0.00 | 0.00 | 45 | 1019.2 |
| 20260502161153 | 47 | 261 | 0.0 | 0.9 | 0.00 | 0.00 | 0.00 | 45 | 1019.3 |
| 20260502160651 | 48 | 35 | 2.6 | 5.2 | 0.00 | 0.00 | 0.00 | 46 | 1019.4 |
| 20260502160149 | 46 | 2 | 1.7 | 1.7 | 0.00 | 0.00 | 0.00 | 47 | 1019.4 |
| 20260502152104 | 45 | 283 | 0.9 | 0.9 | 0.00 | 0.00 | 0.00 | 49 | 1019.3 |
| 20260502151601 | 47 | 47 | 2.6 | 2.6 | 0.00 | 0.00 | 0.00 | 48 | 1019.3 |
| 20260502151058 | 46 | 0 | 2.6 | 2.6 | 0.00 | 0.00 | 0.00 | 49 | 1019.3 |
| 20260502150555 | 45 | 5 | 2.6 | 4.3 | 0.00 | 0.00 | 0.00 | 49 | 1019.4 |
| 20260502130440 | 42 | 242 | 0.9 | 0.9 | 0.00 | 0.00 | 0.00 | 64 | 1019.4 |
| 20260502123423 | 39 | 316 | 1.7 | 1.7 | 0.00 | 0.00 | 0.00 | 67 | 1019.4 |
| 20260502122920 | 39 | 345 | 1.7 | 2.6 | 0.00 | 0.00 | 0.00 | 68 | 1019.4 |
| 20260502122416 | 39 | 257 | 0.9 | 0.9 | 0.00 | 0.00 | 0.00 | 68 | 1019.4 |
| 20260502121914 | 39 | 52 | 5.2 | 7.0 | 0.00 | 0.00 | 0.00 | 67 | 1019.4 |
| 20260502121411 | 39 | 297 | 0.9 | 0.9 | 0.00 | 0.00 | 0.00 | 68 | 1019.3 |
| 20260502120909 | 38 | 32 | 2.6 | 2.6 | 0.00 | 0.00 | 0.00 | 69 | 1019.2 |
| 20260502120405 | 38 | 347 | 1.7 | 2.6 | 0.00 | 0.00 | 0.00 | 69 | 1019.1 |
| 20260502115902 | 37 | 294 | 0.0 | 0.0 | 0.00 | 0.00 | 0.00 | 71 | 1019.4 |
| 20260502115359 | 37 | 47 | 2.6 | 2.6 | 0.00 | 0.00 | 0.00 | 70 | 1019.2 |
| 20260502114855 | 37 | 60 | 0.9 | 1.7 | 0.00 | 0.00 | 0.00 | 71 | 1019.2 |
| 20260502114352 | 37 | 284 | 0.0 | 0.9 | 0.00 | 0.00 | 0.00 | 71 | 1019.3 |
| 20260502113849 | 37 | 255 | 0.0 | 0.0 | 0.00 | 0.00 | 0.00 | 72 | 1019.1 |
| 20260502113347 | 36 | 27 | 0.0 | 0.9 | 0.00 | 0.00 | 0.00 | 72 | 1019.2 |
| 20260502112845 | 36 | 253 | 0.0 | 0.0 | 0.00 | 0.00 | 0.00 | 73 | 1019.2 |
| 20260502112342 | 35 | 10 | 2.6 | 2.6 | 0.00 | 0.00 | 0.00 | 74 | 1019.1 |
| 20260502111840 | 35 | 285 | 0.0 | 0.9 | 0.00 | 0.00 | 0.00 | 76 | 1019.1 |
| 20260502111337 | 34 | 55 | 1.7 | 2.6 | 0.00 | 0.00 | 0.00 | 76 | 1019.0 |
| 20260502110834 | 34 | 290 | 0.0 | 0.9 | 0.00 | 0.00 | 0.00 | 77 | 1018.7 |
| 20260502110332 | 34 | 279 | 0.0 | 0.0 | 0.00 | 0.00 | 0.00 | 77 | 1018.9 |
| 20260502105829 | 34 | 282 | 0.0 | 0.0 | 0.00 | 0.00 | 0.00 | 77 | 1018.9 |
| 20260502105326 | 34 | 282 | 0.0 | 0.0 | 0.00 | 0.00 | 0.00 | 78 | 1019.1 |
| 20260502104824 | 33 | 308 | 0.0 | 0.0 | 0.00 | 0.00 | 0.00 | 78 | 1019.0 |
| 20260502104321 | 33 | 262 | 0.0 | 0.0 | 0.00 | 0.00 | 0.00 | 78 | 1019.1 |
| 20260502103818 | 33 | 266 | 0.0 | 0.0 | 0.00 | 0.00 | 0.00 | 79 | 1018.8 |
| 20260502103315 | 33 | 287 | 0.0 | 0.9 | 0.00 | 0.00 | 0.00 | 79 | 1018.9 |
| 20260502102813 | 33 | 268 | 0.0 | 0.0 | 0.00 | 0.00 | 0.00 | 78 | 1018.8 |
| 20260502102309 | 33 | 280 | 0.0 | 0.0 | 0.00 | 0.00 | 0.00 | 77 | 1018.7 |
| 20260502101807 | 34 | 264 | 0.0 | 0.0 | 0.00 | 0.00 | 0.00 | 76 | 1018.8 |
| 20260502101305 | 34 | 268 | 0.0 | 0.0 | 0.00 | 0.00 | 0.00 | 76 | 1018.8 |
| 20260502100803 | 34 | 22 | 0.9 | 0.9 | 0.00 | 0.00 | 0.00 | 76 | 1018.7 |
| 20260502100302 | 35 | 300 | 0.9 | 0.9 | 0.00 | 0.00 | 0.00 | 75 | 1018.8 |
| 20260502091236 | 36 | 260 | 0.0 | 0.0 | 0.00 | 0.00 | 0.00 | 72 | 1018.4 |
| 20260502090733 | 36 | 261 | 0.0 | 0.0 | 0.00 | 0.00 | 0.00 | 71 | 1018.7 |
| 20260502090229 | 37 | 271 | 0.0 | 0.0 | 0.00 | 0.00 | 0.00 | 71 | 1018.3 |
| 20260502071130 | 39 | 304 | 0.9 | 1.7 | 0.00 | 0.00 | 0.00 | 65 | 1018.1 |
| 20260502070628 | 39 | 279 | 0.9 | 1.7 | 0.00 | 0.00 | 0.00 | 66 | 1018.1 |
| 20260502070126 | 39 | 39 | 1.7 | 1.7 | 0.00 | 0.00 | 0.00 | 64 | 1017.9 |
| 20260502065624 | 39 | 265 | 0.0 | 0.0 | 0.00 | 0.00 | 0.00 | 65 | 1018.0 |
| 20260502065121 | 39 | 271 | 0.0 | 0.0 | 0.00 | 0.00 | 0.00 | 65 | 1017.9 |
| 20260502064620 | 39 | 277 | 0.0 | 0.0 | 0.00 | 0.00 | 0.00 | 65 | 1018.0 |
| 20260502064117 | 39 | 282 | 0.9 | 0.9 | 0.00 | 0.00 | 0.00 | 64 | 1018.2 |
| 20260502063614 | 39 | 272 | 0.9 | 0.9 | 0.00 | 0.00 | 0.00 | 66 | 1018.2 |
| 20260502063112 | 40 | 29 | 0.9 | 2.6 | 0.00 | 0.00 | 0.00 | 67 | 1018.1 |
| 20260502062609 | 40 | 280 | 0.9 | 0.9 | 0.00 | 0.00 | 0.00 | 66 | 1018.3 |
| 20260502062107 | 40 | 281 | 0.0 | 0.0 | 0.00 | 0.00 | 0.00 | 65 | 1018.1 |
| 20260502061604 | 40 | 277 | 0.0 | 0.0 | 0.00 | 0.00 | 0.00 | 65 | 1018.1 |
| 20260502061102 | 40 | 329 | 0.0 | 0.0 | 0.00 | 0.00 | 0.00 | 65 | 1018.4 |
| 20260502060556 | 40 | 275 | 0.0 | 0.9 | 0.00 | 0.00 | 0.00 | 64 | 1018.3 |
| 20260502060053 | 40 | 267 | 0.0 | 0.0 | 0.00 | 0.00 | 0.00 | 65 | 1018.3 |
| 20260502055551 | 40 | 261 | 0.0 | 0.0 | 0.00 | 0.00 | 0.00 | 65 | 1018.3 |
| 20260502055049 | 40 | 276 | 0.0 | 0.0 | 0.00 | 0.00 | 0.00 | 64 | 1018.4 |
| 20260502054548 | 40 | 343 | 0.0 | 0.9 | 0.00 | 0.00 | 0.00 | 65 | 1018.5 |
| 20260502054044 | 40 | 263 | 0.0 | 0.0 | 0.00 | 0.00 | 0.00 | 65 | 1018.3 |
| 20260502053541 | 40 | 253 | 0.0 | 0.0 | 0.00 | 0.00 | 0.00 | 64 | 1018.8 |
| 20260502053039 | 40 | 262 | 0.0 | 0.0 | 0.00 | 0.00 | 0.00 | 65 | 1018.5 |
| 20260502052538 | 40 | 269 | 0.0 | 0.0 | 0.00 | 0.00 | 0.00 | 65 | 1018.5 |
| 20260502052035 | 40 | 300 | 0.9 | 0.9 | 0.00 | 0.00 | 0.00 | 66 | 1018.5 |
| 20260502051533 | 40 | 265 | 0.9 | 1.7 | 0.00 | 0.00 | 0.00 | 65 | 1018.5 |
| 20260502051031 | 41 | 291 | 0.0 | 0.9 | 0.00 | 0.00 | 0.00 | 66 | 1018.4 |
| 20260502050526 | 41 | 2 | 0.9 | 1.7 | 0.00 | 0.00 | 0.00 | 64 | 1018.6 |
| 20260502050024 | 41 | 25 | 1.7 | 1.7 | 0.00 | 0.00 | 0.00 | 64 | 1018.3 |
| 20260502045520 | 41 | 266 | 0.0 | 0.0 | 0.00 | 0.00 | 0.00 | 64 | 1018.4 |
| 20260502045018 | 41 | 307 | 0.9 | 0.9 | 0.00 | 0.00 | 0.00 | 65 | 1018.2 |
| 20260502044514 | 41 | 263 | 0.0 | 0.0 | 0.00 | 0.00 | 0.00 | 67 | 1018.3 |
| 20260502044010 | 41 | 311 | 0.0 | 0.9 | 0.00 | 0.00 | 0.00 | 66 | 1018.1 |
| 20260502043508 | 40 | 267 | 0.0 | 0.0 | 0.00 | 0.00 | 0.00 | 68 | 1018.2 |
| 20260502043004 | 40 | 294 | 0.9 | 0.9 | 0.00 | 0.00 | 0.00 | 70 | 1018.2 |
| 20260502042459 | 40 | 262 | 0.0 | 0.0 | 0.00 | 0.00 | 0.00 | 70 | 1018.0 |
| 20260502041957 | 40 | 266 | 0.0 | 0.0 | 0.00 | 0.00 | 0.00 | 69 | 1018.1 |
| 20260502041455 | 40 | 260 | 0.0 | 0.0 | 0.00 | 0.00 | 0.00 | 71 | 1018.1 |
| 20260502040951 | 40 | 264 | 0.0 | 0.0 | 0.00 | 0.00 | 0.00 | 70 | 1017.9 |
| 20260502040448 | 40 | 262 | 0.0 | 0.0 | 0.00 | 0.00 | 0.00 | 69 | 1018.0 |
| 20260502035944 | 40 | 285 | 0.9 | 0.9 | 0.00 | 0.00 | 0.00 | 70 | 1018.0 |
| 20260502035440 | 40 | 225 | 0.9 | 0.9 | 0.00 | 0.00 | 0.00 | 69 | 1017.8 |
| 20260502034939 | 41 | 263 | 0.9 | 1.7 | 0.00 | 0.00 | 0.00 | 69 | 1017.8 |
| 20260502034437 | 40 | 263 | 0.0 | 0.9 | 0.00 | 0.00 | 0.00 | 69 | 1018.0 |
| 20260502033935 | 41 | 268 | 0.9 | 0.9 | 0.00 | 0.00 | 0.00 | 69 | 1017.9 |
| 20260502033432 | 41 | 353 | 0.9 | 0.9 | 0.00 | 0.00 | 0.00 | 70 | 1018.0 |
| 20260502032928 | 41 | 274 | 0.0 | 0.9 | 0.00 | 0.00 | 0.00 | 71 | 1017.6 |
| 20260502032425 | 41 | 306 | 2.6 | 2.6 | 0.00 | 0.00 | 0.00 | 70 | 1017.9 |
| 20260502031922 | 41 | 221 | 2.6 | 2.6 | 0.00 | 0.00 | 0.00 | 70 | 1017.5 |
| 20260502031421 | 42 | 261 | 0.0 | 0.0 | 0.00 | 0.00 | 0.00 | 69 | 1017.7 |
| 20260502030919 | 42 | 286 | 0.0 | 0.9 | 0.00 | 0.00 | 0.00 | 67 | 1017.6 |
| 20260502030417 | 42 | 21 | 0.9 | 1.7 | 0.00 | 0.00 | 0.00 | 67 | 1017.7 |
| 20260502025915 | 42 | 316 | 0.9 | 0.9 | 0.00 | 0.00 | 0.00 | 68 | 1017.8 |
| 20260502025411 | 42 | 263 | 0.0 | 0.0 | 0.00 | 0.00 | 0.00 | 68 | 1017.6 |
| 20260502024909 | 42 | 267 | 0.0 | 0.0 | 0.00 | 0.00 | 0.00 | 67 | 1017.5 |
| 20260502024407 | 42 | 315 | 0.9 | 0.9 | 0.00 | 0.00 | 0.00 | 67 | 1017.7 |
| 20260502023904 | 42 | 269 | 0.0 | 0.0 | 0.00 | 0.00 | 0.00 | 66 | 1017.6 |
| 20260502023402 | 42 | 338 | 0.9 | 1.7 | 0.00 | 0.00 | 0.00 | 66 | 1017.7 |
| 20260502022859 | 42 | 262 | 0.0 | 0.0 | 0.00 | 0.00 | 0.00 | 68 | 1017.6 |
| 20260502022355 | 42 | 256 | 0.0 | 0.0 | 0.00 | 0.00 | 0.00 | 68 | 1017.6 |
| 20260502021853 | 42 | 267 | 0.0 | 0.0 | 0.00 | 0.00 | 0.00 | 68 | 1017.5 |
| 20260502021350 | 42 | 257 | 0.0 | 0.0 | 0.00 | 0.00 | 0.00 | 68 | 1017.7 |
| 20260502020847 | 42 | 293 | 0.0 | 0.9 | 0.00 | 0.00 | 0.00 | 67 | 1017.5 |
| 20260502020345 | 42 | 302 | 0.9 | 0.9 | 0.00 | 0.00 | 0.00 | 68 | 1017.5 |
| 20260502015841 | 42 | 326 | 1.7 | 1.7 | 0.00 | 0.00 | 0.00 | 66 | 1017.6 |
| 20260502015338 | 43 | 250 | 0.0 | 0.9 | 0.00 | 0.00 | 0.00 | 66 | 1017.5 |
| 20260502014836 | 43 | 266 | 0.0 | 0.9 | 0.00 | 0.00 | 0.00 | 66 | 1017.3 |
| 20260502014333 | 43 | 245 | 0.9 | 0.9 | 0.00 | 0.00 | 0.00 | 65 | 1017.5 |
| 20260502013829 | 43 | 27 | 1.7 | 1.7 | 0.00 | 0.00 | 0.00 | 65 | 1017.3 |
| 20260502013325 | 43 | 341 | 0.9 | 0.9 | 0.00 | 0.00 | 0.00 | 65 | 1017.1 |
| 20260502012821 | 43 | 350 | 0.9 | 0.9 | 0.00 | 0.00 | 0.00 | 65 | 1017.4 |
| 20260502012319 | 43 | 38 | 1.7 | 2.6 | 0.00 | 0.00 | 0.00 | 64 | 1017.2 |
| 20260502011816 | 43 | 298 | 0.9 | 1.7 | 0.00 | 0.00 | 0.00 | 64 | 1017.3 |
| 20260502011312 | 43 | 263 | 0.9 | 0.9 | 0.00 | 0.00 | 0.00 | 65 | 1017.2 |
| 20260502010810 | 43 | 248 | 0.0 | 0.0 | 0.00 | 0.00 | 0.00 | 66 | 1017.0 |
| 20260502010306 | 44 | 271 | 0.9 | 0.9 | 0.00 | 0.00 | 0.00 | 65 | 1016.9 |
| 20260502005803 | 44 | 291 | 0.9 | 0.9 | 0.00 | 0.00 | 0.00 | 66 | 1016.9 |
| 20260502005301 | 43 | 16 | 1.7 | 1.7 | 0.00 | 0.00 | 0.00 | 65 | 1017.1 |
| 20260502004757 | 43 | 308 | 0.0 | 0.9 | 0.00 | 0.00 | 0.00 | 66 | 1017.1 |
| 20260502004253 | 43 | 271 | 0.0 | 0.0 | 0.00 | 0.00 | 0.00 | 65 | 1016.4 |
| 20260502003752 | 44 | 55 | 2.6 | 2.6 | 0.00 | 0.00 | 0.00 | 64 | 1016.9 |
| 20260502003248 | 44 | 36 | 0.9 | 1.7 | 0.00 | 0.00 | 0.00 | 64 | 1016.9 |
| 20260502002738 | 44 | 344 | 1.7 | 1.7 | 0.00 | 0.00 | 0.00 | 65 | 1016.9 |
| 20260502002236 | 44 | 258 | 0.0 | 0.9 | 0.00 | 0.00 | 0.00 | 65 | 1016.9 |
| 20260502001733 | 44 | 0 | 0.0 | 0.9 | 0.00 | 0.00 | 0.00 | 65 | 1016.8 |
| 20260502001231 | 44 | 311 | 0.9 | 0.9 | 0.00 | 0.00 | 0.00 | 65 | 1016.8 |
| 20260502000729 | 44 | 261 | 0.0 | 0.9 | 0.00 | 0.00 | 0.00 | 65 | 1016.7 |
| 20260502000227 | 44 | 7 | 1.7 | 1.7 | 0.00 | 0.00 | 0.00 | 64 | 1016.4 |
| 20260501235722 | 44 | 309 | 0.9 | 1.7 | 0.00 | 0.00 | 0.00 | 63 | 1016.8 |
| 20260501235218 | 44 | 42 | 2.6 | 4.3 | 0.00 | 0.00 | 0.00 | 64 | 1016.5 |